User: anonymous   Login
Location: Theydon Bois
(51.6750°N, 0.1050°E)
Time: 22:26:32
(UTC+00:00)
Language:

NOSS 3-3 (C) - Orbit

View from above orbital plane
View from above orbital plane
View from above satellite
View from above satellite

Ground track
Ground track

The orbit data is extracted from the following two-line orbital elements,

1 28541U 05004C   17343.24139255 0.00000000  00000-0  00000-0 0    01
2 28541  63.4290 102.3977 0281000 357.6418   2.3582 13.40736906    09
Epoch (UTC): 09 December 2017 05:47:36
Eccentricity: 0.0281000
inclination: 63.4290°
perigee height: 896 km
apogee height: 1317 km
right ascension of ascending node: 102.3977°
argument of perigee: 357.6418°
revolutions per day: 13.40736906
mean anomaly at epoch: 2.3582°
orbit number at epoch: 0

The dashed part of the orbit path shows where the satellite is in the earth's shadow,  

DLR